Year,Month,Day,Hour,Minute,Value (Times are PST for temperature in C)
2010,04,24,09,11,7.00
2010,04,24,09,12,7.00
2010,04,24,09,13,7.00
2010,04,24,09,14,7.00
2010,04,24,09,15,7.10
2010,04,24,09,16,7.10
2010,04,24,09,17,7.10
2010,04,24,09,18,7.20
2010,04,24,09,19,7.20
2010,04,24,09,20,7.30
2010,04,24,09,21,7.30
2010,04,24,09,22,7.30
2010,04,24,09,23,7.40
2010,04,24,09,24,7.50
2010,04,24,09,25,7.60
2010,04,24,09,26,7.60
2010,04,24,09,27,7.60
2010,04,24,09,28,7.60
2010,04,24,09,29,7.60
2010,04,24,09,30,7.60
2010,04,24,09,31,7.60
2010,04,24,09,32,7.60
2010,04,24,09,33,7.60
2010,04,24,09,34,7.60
2010,04,24,09,35,7.60
2010,04,24,09,36,7.50
2010,04,24,09,37,7.50
2010,04,24,09,38,7.50
2010,04,24,09,39,7.50
2010,04,24,09,40,7.60
2010,04,24,09,41,7.60
2010,04,24,09,42,7.60
2010,04,24,09,43,7.60
2010,04,24,09,44,7.60
2010,04,24,09,45,7.50
2010,04,24,09,46,7.50
2010,04,24,09,47,7.50
2010,04,24,09,48,7.60
2010,04,24,09,49,7.60
2010,04,24,09,50,7.70
2010,04,24,09,51,7.80
2010,04,24,09,52,7.90
2010,04,24,09,53,7.90
2010,04,24,09,54,8.00
2010,04,24,09,55,8.00
2010,04,24,09,56,8.10
2010,04,24,09,57,8.20
2010,04,24,09,58,8.40
2010,04,24,09,59,8.40
2010,04,24,10,00,8.30
2010,04,24,10,01,8.40
2010,04,24,10,02,8.40
2010,04,24,10,03,8.50
2010,04,24,10,04,8.50
2010,04,24,10,05,8.50
2010,04,24,10,06,8.50
2010,04,24,10,07,8.50
2010,04,24,10,08,8.60
2010,04,24,10,09,8.60
2010,04,24,10,10,8.70
2010,04,24,10,11,8.70
2010,04,24,10,12,8.70
2010,04,24,10,13,8.70
2010,04,24,10,14,8.70
2010,04,24,10,15,8.70
2010,04,24,10,16,8.70
2010,04,24,10,17,8.70
2010,04,24,10,18,8.80
2010,04,24,10,19,8.80
2010,04,24,10,20,8.90
2010,04,24,10,21,8.90
2010,04,24,10,22,8.90
2010,04,24,10,23,8.80
2010,04,24,10,24,8.80
2010,04,24,10,25,8.90
2010,04,24,10,26,8.80
2010,04,24,10,27,8.80
2010,04,24,10,28,8.70
2010,04,24,10,29,8.60
2010,04,24,10,30,8.60
2010,04,24,10,31,8.60
2010,04,24,10,32,8.60
2010,04,24,10,33,8.70
2010,04,24,10,34,8.70
2010,04,24,10,35,8.70
2010,04,24,10,36,8.70
2010,04,24,10,37,8.70
2010,04,24,10,38,8.70
2010,04,24,10,39,8.70
2010,04,24,10,40,8.80
2010,04,24,10,41,8.80
2010,04,24,10,42,8.90
2010,04,24,10,43,9.00
2010,04,24,10,44,9.00
2010,04,24,10,45,9.00
2010,04,24,10,46,9.00
2010,04,24,10,47,9.00
2010,04,24,10,48,8.90
2010,04,24,10,49,8.90
2010,04,24,10,50,8.80
2010,04,24,10,51,8.80
2010,04,24,10,52,8.70
2010,04,24,10,53,8.70
2010,04,24,10,54,8.80
2010,04,24,10,55,8.90
2010,04,24,10,56,8.90
2010,04,24,10,57,9.00
2010,04,24,10,58,9.10
2010,04,24,10,59,9.20
2010,04,24,11,00,9.20
2010,04,24,11,01,9.20
2010,04,24,11,02,9.10
2010,04,24,11,03,9.20
2010,04,24,11,04,9.20
2010,04,24,11,05,9.20
2010,04,24,11,06,9.20
2010,04,24,11,07,9.20
2010,04,24,11,08,9.30
2010,04,24,11,09,9.30
2010,04,24,11,10,9.30
2010,04,24,11,11,9.30
2010,04,24,11,12,9.20
2010,04,24,11,13,9.30
2010,04,24,11,14,9.30
2010,04,24,11,15,9.50
2010,04,24,11,16,9.50
2010,04,24,11,17,9.60
2010,04,24,11,18,9.70
2010,04,24,11,19,9.70
2010,04,24,11,20,9.90
2010,04,24,11,21,9.90
2010,04,24,11,22,9.90
2010,04,24,11,23,9.90
2010,04,24,11,24,9.90
2010,04,24,11,25,9.90
2010,04,24,11,26,9.90
2010,04,24,11,27,10.00
2010,04,24,11,28,10.10
2010,04,24,11,29,10.10
2010,04,24,11,30,10.10
2010,04,24,11,31,10.10
2010,04,24,11,32,10.10
2010,04,24,11,33,10.10
2010,04,24,11,34,10.10
2010,04,24,11,35,10.10
2010,04,24,11,36,10.10
2010,04,24,11,37,10.00
2010,04,24,11,38,9.90
2010,04,24,11,39,9.90
2010,04,24,11,40,9.80
2010,04,24,11,41,9.80
2010,04,24,11,42,9.70
2010,04,24,11,43,9.60
2010,04,24,11,44,9.50
2010,04,24,11,45,9.40
2010,04,24,11,46,9.40
2010,04,24,11,47,9.40
2010,04,24,11,48,9.40
2010,04,24,11,49,9.40
2010,04,24,11,50,9.40
2010,04,24,11,51,9.50
2010,04,24,11,52,9.60
2010,04,24,11,53,9.70
2010,04,24,11,54,9.70
2010,04,24,11,55,9.70
2010,04,24,11,56,9.70
2010,04,24,11,57,9.70
2010,04,24,11,58,9.60
2010,04,24,11,59,9.40
2010,04,24,12,00,9.30
2010,04,24,12,01,9.20
2010,04,24,12,02,9.20
2010,04,24,12,03,9.20
2010,04,24,12,04,9.20
2010,04,24,12,05,9.20
2010,04,24,12,06,9.20
2010,04,24,12,07,9.30
2010,04,24,12,08,9.40
2010,04,24,12,09,9.50
2010,04,24,12,10,9.60
2010,04,24,12,11,9.70
2010,04,24,12,12,9.90
2010,04,24,12,13,9.90
2010,04,24,12,14,9.90
2010,04,24,12,15,9.80
2010,04,24,12,16,9.70
2010,04,24,12,17,9.60
2010,04,24,12,18,9.60
2010,04,24,12,19,9.60
2010,04,24,12,20,9.60
2010,04,24,12,21,9.60
2010,04,24,12,22,9.60
2010,04,24,12,23,9.60
2010,04,24,12,24,9.60
2010,04,24,12,25,9.60
2010,04,24,12,26,9.60
2010,04,24,12,27,9.60
2010,04,24,12,28,9.70
2010,04,24,12,29,9.70
2010,04,24,12,30,9.70
2010,04,24,12,31,9.70
2010,04,24,12,32,9.80
2010,04,24,12,33,9.90
2010,04,24,12,34,9.90
2010,04,24,12,35,9.90
2010,04,24,12,36,9.90
2010,04,24,12,37,9.90
2010,04,24,12,38,9.90
2010,04,24,12,39,9.90
2010,04,24,12,40,9.90
2010,04,24,12,41,9.90
2010,04,24,12,42,10.00
2010,04,24,12,43,10.10
2010,04,24,12,44,10.00
2010,04,24,12,45,9.90
2010,04,24,12,46,10.00
2010,04,24,12,47,9.90
2010,04,24,12,48,9.90
2010,04,24,12,49,9.90
2010,04,24,12,50,9.80
2010,04,24,12,51,9.80
2010,04,24,12,52,9.80
2010,04,24,12,53,9.70
2010,04,24,12,54,9.70
2010,04,24,12,55,9.60
2010,04,24,12,56,9.60
2010,04,24,12,57,9.60
2010,04,24,12,58,9.60
2010,04,24,12,59,9.60
2010,04,24,13,00,9.50
2010,04,24,13,01,9.40
2010,04,24,13,02,9.40
2010,04,24,13,03,9.40
2010,04,24,13,04,9.30
2010,04,24,13,05,9.30
2010,04,24,13,06,9.30
2010,04,24,13,07,9.30
2010,04,24,13,08,9.40
2010,04,24,13,09,9.40
2010,04,24,13,10,9.50
2010,04,24,13,11,9.50
2010,04,24,13,12,9.70
2010,04,24,13,13,9.70
2010,04,24,13,14,9.90
2010,04,24,13,15,10.00
2010,04,24,13,16,10.10
2010,04,24,13,17,10.10
2010,04,24,13,18,10.10
2010,04,24,13,19,10.00
2010,04,24,13,20,10.00
2010,04,24,13,21,10.10
2010,04,24,13,22,10.10
2010,04,24,13,23,10.10
2010,04,24,13,24,10.10
2010,04,24,13,25,10.10
2010,04,24,13,26,10.10
2010,04,24,13,27,10.00
2010,04,24,13,28,9.90
2010,04,24,13,29,9.80
2010,04,24,13,30,9.60
2010,04,24,13,31,9.50
2010,04,24,13,32,9.40
2010,04,24,13,33,9.30
2010,04,24,13,34,9.10
2010,04,24,13,35,9.10
2010,04,24,13,36,9.00
2010,04,24,13,37,9.00
2010,04,24,13,38,9.00
2010,04,24,13,39,9.00
2010,04,24,13,40,9.10
2010,04,24,13,41,9.20
2010,04,24,13,42,9.20
2010,04,24,13,43,9.30
2010,04,24,13,44,9.40
2010,04,24,13,45,9.50
2010,04,24,13,46,9.60
2010,04,24,13,47,9.70
2010,04,24,13,48,9.70
2010,04,24,13,49,9.80
2010,04,24,13,50,9.80
2010,04,24,13,51,9.80
2010,04,24,13,52,9.90
2010,04,24,13,53,9.80
2010,04,24,13,54,9.80
2010,04,24,13,55,9.90
2010,04,24,13,56,9.90
2010,04,24,13,57,9.90
2010,04,24,13,58,9.90
2010,04,24,13,59,9.90
2010,04,24,14,00,9.90
2010,04,24,14,01,10.00
2010,04,24,14,02,10.10
2010,04,24,14,03,10.10
2010,04,24,14,04,10.10
2010,04,24,14,05,10.20
2010,04,24,14,06,10.30
2010,04,24,14,07,10.40
2010,04,24,14,08,10.50
2010,04,24,14,09,10.60
2010,04,24,14,10,10.60
2010,04,24,14,11,10.60
2010,04,24,14,12,10.70
2010,04,24,14,13,10.70
2010,04,24,14,14,10.60
2010,04,24,14,15,10.60
2010,04,24,14,16,10.60
2010,04,24,14,17,10.60
2010,04,24,14,18,10.60
2010,04,24,14,19,10.60
2010,04,24,14,20,10.40
2010,04,24,14,21,10.30
2010,04,24,14,22,10.20
2010,04,24,14,23,10.00
2010,04,24,14,24,9.70
2010,04,24,14,25,9.50
2010,04,24,14,26,9.30
2010,04,24,14,27,9.10
2010,04,24,14,28,8.90
2010,04,24,14,29,8.70
2010,04,24,14,30,8.50
2010,04,24,14,31,8.40
2010,04,24,14,32,8.30
2010,04,24,14,33,8.20
2010,04,24,14,34,8.20
2010,04,24,14,35,8.20
2010,04,24,14,36,8.20
2010,04,24,14,37,8.30
2010,04,24,14,38,8.40
2010,04,24,14,39,8.50
2010,04,24,14,40,8.60
2010,04,24,14,41,8.70
2010,04,24,14,42,8.60
2010,04,24,14,43,8.70
2010,04,24,14,44,8.70
2010,04,24,14,45,8.80
2010,04,24,14,46,8.90
2010,04,24,14,47,9.00
2010,04,24,14,48,9.00
2010,04,24,14,49,9.10
2010,04,24,14,50,9.10
2010,04,24,14,51,9.20
2010,04,24,14,52,9.20
2010,04,24,14,53,9.30
2010,04,24,14,54,9.40
2010,04,24,14,55,9.50
2010,04,24,14,56,9.50
2010,04,24,14,57,9.50
2010,04,24,14,58,9.50
2010,04,24,14,59,9.50
2010,04,24,15,00,9.50
2010,04,24,15,01,9.60
2010,04,24,15,02,9.70
2010,04,24,15,03,9.70
2010,04,24,15,04,9.50
2010,04,24,15,05,9.50
2010,04,24,15,06,9.40
2010,04,24,15,07,9.40
2010,04,24,15,08,9.30
2010,04,24,15,09,9.30
2010,04,24,15,10,9.20
2010,04,24,15,11,9.20
2010,04,24,15,12,9.20
2010,04,24,15,13,9.20
2010,04,24,15,14,9.30
2010,04,24,15,15,9.30
2010,04,24,15,16,9.30
2010,04,24,15,17,9.30
2010,04,24,15,18,9.20
2010,04,24,15,19,9.20
2010,04,24,15,20,9.20
2010,04,24,15,21,9.20
2010,04,24,15,22,9.10
2010,04,24,15,23,9.10
2010,04,24,15,24,9.20
2010,04,24,15,25,9.20
2010,04,24,15,26,9.20
2010,04,24,15,27,9.20
2010,04,24,15,28,9.20
2010,04,24,15,29,9.20
2010,04,24,15,30,9.20
2010,04,24,15,31,9.30
2010,04,24,15,32,9.30
2010,04,24,15,33,9.40
2010,04,24,15,34,9.40
2010,04,24,15,35,9.50
2010,04,24,15,36,9.60
2010,04,24,15,37,9.50
2010,04,24,15,38,9.50
2010,04,24,15,39,9.40
2010,04,24,15,40,9.40
2010,04,24,15,41,9.50
2010,04,24,15,42,9.50
2010,04,24,15,43,9.70
2010,04,24,15,44,9.70
2010,04,24,15,45,9.80
2010,04,24,15,46,9.90
2010,04,24,15,47,9.90
2010,04,24,15,48,9.90
2010,04,24,15,49,9.90
2010,04,24,15,50,9.90
2010,04,24,15,51,9.90
2010,04,24,15,52,9.80
2010,04,24,15,53,9.70
2010,04,24,15,54,9.70
2010,04,24,15,55,9.70
2010,04,24,15,56,9.80
2010,04,24,15,57,9.80
2010,04,24,15,58,9.80
2010,04,24,15,59,9.80
2010,04,24,16,00,9.70
2010,04,24,16,01,9.70
2010,04,24,16,02,9.60
2010,04,24,16,03,9.50
2010,04,24,16,04,9.40
2010,04,24,16,05,9.40
2010,04,24,16,06,9.30
2010,04,24,16,07,9.30
2010,04,24,16,08,9.30
2010,04,24,16,09,9.30
2010,04,24,16,10,9.30
2010,04,24,16,11,9.30
2010,04,24,16,12,9.30
2010,04,24,16,13,9.30
2010,04,24,16,14,9.40
2010,04,24,16,15,9.40
2010,04,24,16,16,9.50
2010,04,24,16,17,9.50
2010,04,24,16,18,9.60
2010,04,24,16,19,9.70
2010,04,24,16,20,9.70
2010,04,24,16,21,9.70
2010,04,24,16,22,9.70
2010,04,24,16,23,9.70
2010,04,24,16,24,9.70
2010,04,24,16,25,9.70
2010,04,24,16,26,9.70
2010,04,24,16,27,9.70
2010,04,24,16,28,9.70
2010,04,24,16,29,9.70
2010,04,24,16,30,9.70
2010,04,24,16,31,9.70
2010,04,24,16,32,9.70
2010,04,24,16,33,9.70
2010,04,24,16,34,9.60
2010,04,24,16,35,9.50
2010,04,24,16,36,9.50
2010,04,24,16,37,9.50
2010,04,24,16,38,9.50
2010,04,24,16,39,9.50
2010,04,24,16,40,9.60
2010,04,24,16,41,9.70
2010,04,24,16,42,9.70
2010,04,24,16,43,9.70
2010,04,24,16,44,9.80
2010,04,24,16,45,9.90
2010,04,24,16,46,9.90
2010,04,24,16,47,9.90
2010,04,24,16,48,9.80
2010,04,24,16,49,9.80
2010,04,24,16,50,9.80
2010,04,24,16,51,9.90
2010,04,24,16,52,9.90
2010,04,24,16,53,9.80
2010,04,24,16,54,9.80
2010,04,24,16,55,9.80
2010,04,24,16,56,9.90
2010,04,24,16,57,9.90
2010,04,24,16,58,9.90
2010,04,24,16,59,9.90
2010,04,24,17,00,9.90
2010,04,24,17,01,10.10
2010,04,24,17,02,10.10
2010,04,24,17,03,10.10
2010,04,24,17,04,10.10
2010,04,24,17,05,10.10
2010,04,24,17,06,10.10
2010,04,24,17,07,10.10
2010,04,24,17,08,10.10
2010,04,24,17,09,10.10
2010,04,24,17,10,10.10
2010,04,24,17,11,10.10
2010,04,24,17,12,10.00
2010,04,24,17,13,9.90
2010,04,24,17,14,9.90
2010,04,24,17,15,9.90
2010,04,24,17,16,9.80
2010,04,24,17,17,9.80
2010,04,24,17,18,9.80
2010,04,24,17,19,9.80
2010,04,24,17,20,9.90
2010,04,24,17,21,9.90
2010,04,24,17,22,9.90
2010,04,24,17,23,9.90
2010,04,24,17,24,9.90
2010,04,24,17,25,9.90
2010,04,24,17,26,9.90
2010,04,24,17,27,9.90
2010,04,24,17,28,9.90
2010,04,24,17,29,9.80
2010,04,24,17,30,9.80
2010,04,24,17,31,9.70
2010,04,24,17,32,9.70
2010,04,24,17,33,9.60
2010,04,24,17,34,9.60
2010,04,24,17,35,9.60
2010,04,24,17,36,9.70
2010,04,24,17,37,9.70
2010,04,24,17,38,9.70
2010,04,24,17,39,9.60
2010,04,24,17,40,9.60
2010,04,24,17,41,9.50
2010,04,24,17,42,9.40
2010,04,24,17,43,9.30
2010,04,24,17,44,9.20
2010,04,24,17,45,9.20
2010,04,24,17,46,9.10
2010,04,24,17,47,9.10
2010,04,24,17,48,9.20
2010,04,24,17,49,9.20
2010,04,24,17,50,9.10
2010,04,24,17,51,9.10
2010,04,24,17,52,9.10
2010,04,24,17,53,9.10
2010,04,24,17,54,9.10
2010,04,24,17,55,9.10
2010,04,24,17,56,9.10
2010,04,24,17,57,9.00
2010,04,24,17,58,9.00
2010,04,24,17,59,9.00
2010,04,24,18,00,9.00
2010,04,24,18,01,9.00
2010,04,24,18,02,9.10
2010,04,24,18,03,9.20
2010,04,24,18,04,9.20
2010,04,24,18,05,9.20
2010,04,24,18,06,9.20
2010,04,24,18,07,9.20
2010,04,24,18,08,9.20
2010,04,24,18,09,9.20
2010,04,24,18,10,9.20
2010,04,24,18,11,9.20
2010,04,24,18,12,9.30
2010,04,24,18,13,9.30
2010,04,24,18,14,9.40
2010,04,24,18,15,9.40
2010,04,24,18,16,9.40
2010,04,24,18,17,9.40
2010,04,24,18,18,9.50
2010,04,24,18,19,9.50
2010,04,24,18,20,9.60
2010,04,24,18,21,9.60
2010,04,24,18,22,9.60
2010,04,24,18,23,9.70
2010,04,24,18,24,9.70
2010,04,24,18,25,9.70
2010,04,24,18,26,9.70
2010,04,24,18,27,9.70
2010,04,24,18,28,9.70
2010,04,24,18,29,9.70
2010,04,24,18,30,9.70
2010,04,24,18,31,9.70
2010,04,24,18,32,9.70
2010,04,24,18,33,9.70
2010,04,24,18,34,9.70
2010,04,24,18,35,9.70
2010,04,24,18,36,9.70
2010,04,24,18,37,9.70
2010,04,24,18,38,9.60
2010,04,24,18,39,9.60
2010,04,24,18,40,9.60
2010,04,24,18,41,9.60
2010,04,24,18,42,9.60
2010,04,24,18,43,9.60
2010,04,24,18,44,9.60
2010,04,24,18,45,9.60
2010,04,24,18,46,9.70
2010,04,24,18,47,9.70
2010,04,24,18,48,9.70
2010,04,24,18,49,9.70
2010,04,24,18,50,9.70
2010,04,24,18,51,9.70
2010,04,24,18,52,9.60
2010,04,24,18,53,9.50
2010,04,24,18,54,9.50
2010,04,24,18,55,9.50
2010,04,24,18,56,9.40
2010,04,24,18,57,9.40
2010,04,24,18,58,9.40
2010,04,24,18,59,9.40
2010,04,24,19,00,9.40
2010,04,24,19,01,9.40
2010,04,24,19,02,9.40
2010,04,24,19,03,9.40
2010,04,24,19,04,9.40
2010,04,24,19,05,9.40
2010,04,24,19,06,9.40
2010,04,24,19,07,9.50
2010,04,24,19,08,9.50
2010,04,24,19,09,9.60
2010,04,24,19,10,9.60
2010,04,24,19,11,9.60
2010,04,24,19,12,9.60
2010,04,24,19,13,9.60
2010,04,24,19,14,9.60
2010,04,24,19,15,9.60
2010,04,24,19,16,9.60
2010,04,24,19,17,9.60
2010,04,24,19,18,9.60
2010,04,24,19,19,9.60
2010,04,24,19,20,9.60
2010,04,24,19,21,9.60
